Regional Weather Roundup
Issued by NWS Green Bay, WI

Home | Current Version | Previous Version | Graphics & Text | Print | Product List | Glossary Off
Versions: 1 2 3 4 5 6 7 8 9 10 11 12 13 14 15 16 17 18 19 20 21 22 23 24 25 26 27 28 29 30 31 32 33 34 35 36 37 38 39 40 41 42 43 44 45 46 47 48 49 50

000
ASUS43 KGRB 012159
RWRGRB

NORTH-CENTRAL AND NORTHEAST WISCONSIN REGIONAL WEATHER ROUNDUP
NATIONAL WEATHER SERVICE GREEN BAY WI
500 PM CDT FRI AUG 01 2014

WIZ005-009-010>012-018-019-012300-
NORTH CENTRAL WISCONSIN

CITY           SKY/WX    TMP DP  RH WIND       PRES   REMARKS
IRONWOOD       NOT AVBL
MANITOWISH WTR NOT AVBL
ARBOR VITAE    NOT AVBL
EAGLE RIVER    NOT AVBL
LAND O LAKES   NOT AVBL
RHINELANDER    MOSUNNY   76  52  43 VRB6      30.08S
PHILLIPS       NOT AVBL
ANTIGO         NOT AVBL
TOMAHAWK       NOT AVBL
MERRILL        NOT AVBL
$$

WIZ013-073-012300-
NORTHEAST WISCONSIN

CITY           SKY/WX    TMP DP  RH WIND       PRES   REMARKS
IRON MOUNTAIN  NOT AVBL
MARINETTE      NOT AVBL
$$

WIZ017-030-035>037-045-012300-
CENTRAL WISCONSIN

CITY           SKY/WX    TMP DP  RH WIND       PRES   REMARKS
MEDFORD        NOT AVBL
WAUSAU         NOT AVBL
MOSINEE        MOSUNNY   66  61  82 CALM      30.08R
MARSHFIELD     CLOUDY    64  57  77 SW12      30.08R
WISC RAPIDS    NOT AVBL
STEVENS POINT  NOT AVBL
WAUPACA        NOT AVBL
SHAWANO        NOT AVBL
CLINTONVILLE   NOT AVBL
$$

WIZ038-039-048-051-012300-
FOX VALLEY

CITY           SKY/WX    TMP DP  RH WIND       PRES   REMARKS
NWS GREEN BAY  NOT AVBL
APPLETON       CLOUDY    70  55  60 SW8       30.06S
OSHKOSH        NOT AVBL
FOND DU LAC    NOT AVBL
$$

WIZ022-050-052-012300-
EAST CENTRAL WISCONSIN

CITY           SKY/WX    TMP DP  RH WIND       PRES   REMARKS
STURGEON BAY   NOT AVBL
MANITOWOC      NOT AVBL
SHEBOYGAN      NOT AVBL
$$

LMZ563-521-522-541>543-012300-
LAKESHORE

STATION/POSITION TIME  TEMP    WIND        PRES    VSBY  WAVE
                       AIR SEA DIR/SP/G                  HT/PER
                 (UTC) (F)     (DEG/KT/KT) (MB)    (MI)  (FT/S)
SHEBOYGAN LKSHOR 2100   69     170/ 12/ 12 1017.2R
KEWAUNEE LKSHORE 2100   62     190/  4/  5 1017.2R
NORTHPORT PIER   2100   64     100/  8/  9 1017.6S
N MID LAKE BUOY  2100   62 60   60/  2/  2 1017.6R         0
S GREEN BAY BUOY 2100   73 69   30/  2     1018.0F
SISTER BAY LKSHO 2100   76     360/  6/  7   N/A
STURGEON BAY CG  2100   65 66  140/  3     1017.8      6   1
CHAMBERS ISLAND  2100   75     320/  3/  7 1017.3S
MENOMINEE LKSHOR 2100   72     150/  5/  6 1017.6F
$$



USA.gov is the U.S. government's official web portal to all federal, state and local government web resources and services.